Location: TAAA CAC
(31.8680°N, 109.5150°W)
Time: 21:13:16
(UTC-07:00)

Hubble Space Telescope - Pass Details

Date: 18 March 2026
Orbit: 474 x 477 km, 28.5° (Epoch: 20 April)

Event Time Altitude Azimuth Distance (km) Brightness Sun altitude
Rises 19:19:07 0° 266° (W) 2,507 6.1 -11.6°
Reaches altitude 10° 19:21:37 10° 252° (WSW) 1,628 4.3 -12.1°
Maximum altitude 19:24:37 23° 198° (SSW) 1,046 2.4 -12.7°
Enters shadow 19:27:21 11° 147° (SSE) 1,544 2.7 -13.3°
